Flag for Germany Weather past 2 weeks in Burg, Saxony-Anhalt, Germany

Now
57 °F

Fog.


Feels Like: 57 °F
Forecast: 55 / 69 °F
Wind: 1 mph from West

Location: Magdeburg

Current Time: Oct 1, 2014 at 12:43:47 AM

Latest Report: Oct 1, 2014 at 12:00 AM


Visibility: 2 mi

Pressure: 30.29 "Hg

Humidity: 92%

Dew point: 54 °F

Location of BurgLocation

Historic Weather in Burg — Graph

°F

Burg temperature yesterday

Maximum temperature yesterday: 69 °F (at 3:00 PM)
Minimum temperature yesterday: 60 °F (at 11:00 PM)
Average temperature yesterday: 64 °F

Past Weeks' High & Low Weather Summary

 TemperatureHumidityPressure
High77 °F (Sep 29, 3:00 PM)98% (Sep 15, 11:00 PM)30.39 "Hg (Sep 15, 11:00 PM)
Low44 °F (Sep 28, 6:00 AM)43% (Sep 17, 6:00 PM)29.83 "Hg (Sep 24, 7:00 PM)
Average60 °F80%30.06 "Hg
* Reported Sep 15 11:00 PM — Sep 30 11:00 PM, Burg, Weather by CustomWeather, © 2014

Note: Actual official high and low records may vary slightly from our data, if they occured in-between our weather recording intervals... More about our weather records

Advertising

Burg weather history for previous 24 hours

 ConditionsComfort  
Time TempWeatherWind HumidityBarometerVisibility
11:00 PM
Sep 30
60 °FFog.2 mph85%30.29 "Hg3 mi
10:00 PM62 °FFog.1 mph87%30.28 "Hg3 mi
9:00 PM62 °FFog.1 mph94%30.28 "Hg3 mi
8:00 PM62 °FFog.1 mph90%30.27 "Hg4 mi
7:00 PM65 °FOvercast.1 mph82%30.26 "Hg5 mi
6:00 PM67 °FOvercast.2 mph77%30.25 "Hg7 mi
5:00 PM68 °FOvercast.2 mph76%30.25 "Hg16 mi
4:00 PM68 °FOvercast.1 mph74%30.25 "Hg12 mi
3:00 PM69 °FOvercast.1 mph73%30.24 "Hg14 mi
2:00 PM68 °FOvercast.2 mph75%30.24 "Hg12 mi
1:00 PM68 °FPartly sunny.2 mph73%30.24 "Hg12 mi
12:00 PM65 °FOvercast.3 mph79%30.24 "Hg14 mi
10:00 AM64 °FOvercast.3 mph87%30.24 "Hg6 mi
9:00 AM62 °FOvercast.2 mph95%30.22 "Hg5 mi
8:00 AM62 °FFog.2 mph90%30.21 "Hg3 mi
7:00 AM62 °FFog.2 mph92%30.20 "Hg3 mi
6:00 AM61 °FOvercast.2 mph94%30.19 "Hg3 mi
4:00 AM62 °FLight rain. Overcast.1 mph92%30.21 "Hg2 mi
3:00 AM62 °FOvercast.1 mph91%30.20 "Hg3 mi
2:00 AM64 °FLight rain. Overcast.3 mph85%30.21 "Hg6 mi
1:00 AM65 °FOvercast.2 mph77%30.21 "Hg11 mi
12:00 AM65 °FOvercast.2 mph76%30.21 "Hg14 mi
Weather by CustomWeather, © 2014

See weather overviewHow to use our weather pages